Weather History for Juneau, AK

Change the Weather History Date:

Friday, July 5, 2013

  Actual Average Record
Temperature  
Mean Temperature 56 °F 56 °F  
Max Temperature 60 °F 64 °F 83 °F (1951)
Min Temperature 51 °F 49 °F 39 °F (1954)
Degree Days  
Heating Degree Days 9 9  
Month to date heating degree days 49 45  
Since 1 June heating degree days 263 360  
Since 1 July heating degree days 49 45  
Cooling Degree Days 0 0  
Month to date cooling degree days 0 0  
Year to date cooling degree days 7 1  
Since 1 June cooling degree days 7 1  
Growing Degree Days 6 (Base 50)    
Moisture  
Dew Point 50 °F    
Average Humidity 84    
Maximum Humidity 96    
Minimum Humidity 72    
Precipitation  
Precipitation T in 0.13 in 1.05 in (1964)
Month to date precipitation 1.47 0.63  
Year to date precipitation 33.03 23.47  
Sea Level Pressure  
Sea Level Pressure 30.22 in    
Wind  
Wind Speed 5 mph (East)    
Max Wind Speed 10 mph    
Max Gust Speed 13 mph    
Visibility 10 miles    
Events      
T = Trace of Precipitation, MM = Missing Value Source: NWS Daily Summary

Daily Weather History Graph

Daily Weather History Graph

Search for Another Location

Airport:

Trip Planner

Search our weather history database for the weather conditions in past years. The results will help you decide how hot, cold, wet, or windy it might be!

Date:

Astronomy

Jul. 05, 2013 Rise Set
Actual Time 4:01 AM AKDT 10:03 PM AKDT
Civil Twilight 2:48 AM AKDT 11:16 PM AKDT
Nautical Twilight Sun does not rise Sun does not rise
Astronomical Twilight Sun does not rise Sun does not rise
Moon 2:24 AM AKDT (7/5) 7:47 PM AKDT (7/5)
Length of Visible Light 20h 27m
Length of Day
18h 01m
Waning Crescent, 5% of the Moon is Illuminated
Jul 5
Waning Crescent
Jul 7
New
Jul 15
First Quarter
Jul 22
Full
Jul 29
Last Quarter

Hourly Weather History & Observations

Time (AKDT) Temp. Dew Point Humidity Pressure Visibility Wind Dir Wind Speed Gust Speed Precip Events Conditions
12:53 AM 52.0 °F 50.0 °F 93% 30.22 in 10.0 mi East 5.8 mph - N/A   Overcast
1:53 AM 52.0 °F 50.0 °F 93% 30.23 in 10.0 mi Calm Calm - N/A   Overcast
2:53 AM 51.1 °F 50.0 °F 96% 30.22 in 10.0 mi East 4.6 mph - N/A   Overcast
3:53 AM 51.1 °F 50.0 °F 96% 30.22 in 10.0 mi East 5.8 mph - N/A   Overcast
4:53 AM 51.1 °F 48.9 °F 92% 30.23 in 10.0 mi ESE 3.5 mph - N/A   Overcast
5:53 AM 51.1 °F 50.0 °F 96% 30.22 in 10.0 mi ESE 4.6 mph - N/A   Overcast
6:53 AM 52.0 °F 50.0 °F 93% 30.22 in 10.0 mi East 4.6 mph - N/A   Overcast
7:53 AM 53.1 °F 50.0 °F 89% 30.23 in 10.0 mi East 4.6 mph - N/A   Mostly Cloudy
8:53 AM 53.1 °F 50.0 °F 89% 30.23 in 10.0 mi East 4.6 mph - N/A   Overcast
9:53 AM 54.0 °F 50.0 °F 86% 30.23 in 10.0 mi East 5.8 mph - N/A   Overcast
10:53 AM 55.9 °F 50.0 °F 80% 30.23 in 10.0 mi Variable 4.6 mph - N/A   Overcast
11:53 AM 55.9 °F 48.9 °F 77% 30.23 in 10.0 mi ESE 4.6 mph - N/A   Overcast
12:53 PM 57.9 °F 48.9 °F 72% 30.23 in 10.0 mi ESE 5.8 mph - N/A   Overcast
1:53 PM 57.0 °F 48.9 °F 74% 30.23 in 10.0 mi ESE 8.1 mph - N/A   Overcast
2:53 PM 57.0 °F 50.0 °F 77% 30.22 in 10.0 mi ESE 8.1 mph - N/A   Overcast
3:53 PM 57.0 °F 50.0 °F 77% 30.22 in 10.0 mi East 6.9 mph - N/A   Overcast
4:53 PM 57.9 °F 48.9 °F 72% 30.21 in 10.0 mi East 5.8 mph - N/A   Overcast
5:53 PM 57.0 °F 50.0 °F 77% 30.21 in 10.0 mi East 5.8 mph - N/A   Overcast
6:53 PM 57.0 °F 51.1 °F 81% 30.20 in 10.0 mi East 5.8 mph - N/A   Overcast
7:53 PM 55.9 °F 51.1 °F 84% 30.20 in 10.0 mi ENE 5.8 mph - N/A   Overcast
8:53 PM 55.9 °F 50.0 °F 80% 30.20 in 10.0 mi NE 4.6 mph - N/A   Overcast
9:53 PM 55.0 °F 51.1 °F 86% 30.19 in 10.0 mi ENE 5.8 mph - 0.00 in   Overcast
10:53 PM 53.1 °F 51.1 °F 93% 30.19 in 10.0 mi East 5.8 mph - N/A   Overcast
11:53 PM 53.1 °F 51.1 °F 93% 30.19 in 10.0 mi ENE 4.6 mph - N/A   Overcast